Home > Weather > Accra > Past weeks

Flag for Ghana Weather for the Past 2 Weeks in Accra, Ghana

Now
82 °F

Fog.


Feels Like: 92 °F
Forecast: N/A
Wind: 10 mph from Southwest

Location: Accra Airport

Current Time: Feb 8, 2016 at 11:49:13 PM

Latest Report: Feb 8, 2016 at 11:00 PM


Visibility: 3 mi

Pressure: 29.98 "Hg

Humidity: 89%

Dew point: 79 °F

Location of AccraLocation

Historic Weather in Accra — Graph

°F

Accra Temperature Yesterday

Maximum temperature yesterday: 90 °F (at 12:00 PM)
Minimum temperature yesterday: 81 °F (at 9:00 AM)
Average temperature yesterday: 85 °F

High & Low Weather Summary for the Past Weeks

 TemperatureHumidityPressure
High93 °F (Jan 27, 1:00 PM)94% (Feb 8, 1:00 AM)30.09 "Hg (Feb 8, 1:00 AM)
Low77 °F (Jan 26, 5:00 AM)14% (Jan 28, 3:00 PM)29.83 "Hg (Jan 27, 3:00 PM)
Average83 °F56%29.94 "Hg
* Reported Jan 24 9:00 PM — Feb 8 9:00 PM, Accra, Weather by CustomWeather, © 2016

Note: Actual official high and low records may vary slightly from our data, if they occured in-between our weather recording intervals... More about our weather records

Advertising

Accra Weather History for the Previous 24 Hours

 ConditionsComfort  
Time TempWeatherWind HumidityBarometerVisibility
9:00 PM
Mon, Feb 8
82 °FFog.12 mph89%29.98 "Hg3 mi
8:00 PM82 °FFog.10 mph89%29.95 "Hg3 mi
7:00 PM82 °FFog.10 mph84%29.92 "Hg3 mi
6:00 PM84 °FFog.13 mph79%29.89 "Hg2 mi
5:00 PM86 °FHaze.12 mph75%29.86 "Hg2 mi
4:00 PM86 °FHaze.15 mph75%29.86 "Hg2 mi
3:00 PM90 °FHaze.16 mph63%29.86 "Hg2 mi
2:00 PM90 °FHaze.14 mph63%29.89 "Hg2 mi
1:00 PM91 °FScattered clouds.12 mph59%29.92 "Hg1 mi
12:00 PM91 °FScattered clouds.5 mph52%29.95 "Hg1 mi
11:00 AM90 °FHaze.7 mph59%29.98 "Hg1 mi
10:00 AM86 °FHaze.9 mph70%30.09 "Hg1 mi
9:00 AM84 °FHaze.10 mph74%29.98 "Hg1 mi
7:49 AM81 °FFog.7 mph89%29.98 "Hg1 mi
7:00 AM79 °FFog.8 mph94%29.95 "Hg1 mi
5:00 AM81 °FPassing clouds.6 mph89%29.92 "Hg4 mi
4:00 AM81 °FPassing clouds.6 mph89%29.92 "Hg4 mi
3:00 AM81 °FPassing clouds.7 mph89%29.92 "Hg4 mi
1:00 AM81 °FFog.7 mph94%29.95 "Hg4 mi
12:00 AM82 °FFog.8 mph89%29.95 "Hg4 mi
11:00 PM
Sun, Feb 7
82 °FFog.8 mph89%29.98 "Hg4 mi
Weather by CustomWeather, © 2016

See weather overviewHow to use our weather pages